weather.gov     
National Weather Service

Regional Weather Roundup
NWS Homepage
This page is being discontinued on March 12, 2014.
The same data is available at this site. Please update your bookmarks.
Thank you, and we apologize for the inconvenience.
Please send an email to SR-SRH.Webmaster@noaa.gov with any concerns.


Current Version
Previous Version:    01  02  03  04  05  06  07  08  09  10  11  12  13  14  15  16  17  18  19  20  21  22  23  24  25  26  
[Printable]
041
ASUS42 KKEY 301510
RWRKEY

FLORIDA REGIONAL WEATHER ROUNDUP FOR THE FLORIDA KEYS
NATIONAL WEATHER SERVICE KEY WEST FLORIDA
1100 AM EDT THU OCT 30 2014

...SOUTH FLORIDA AND THE KEYS...

CITY           SKY/WX    TMP DP  RH WIND       PRES   REMARKS
FORT MYERS     SUNNY     80  67  64 SE7       29.97F
SW REGIONAL AP SUNNY     79  67  66 S6        29.98F
NAPLES         SUNNY     80  67  64 S6        29.98S
MIAMI          MOSUNNY   81  66  60 SW3       29.98F
WEST KENDALL   MOSUNNY   85  66  53 NW3       29.98F
HOMESTEAD      SUNNY     80  66  62 SW1       29.98F
MARATHON       MOSUNNY   81  69  67 NE6       29.99S
BOCA CHICA NAS MOSUNNY   82  67  60 E5        29.99S
KEY WEST INTL  SUNNY     80  71  74 SE7       29.99S

...INTERNATIONAL WEATHER...

CITY           SKY/WX    TMP DP  RH WIND       PRES   REMARKS
NASSAU BAHAMAS MOSUNNY   81  72  74 VRB2      29.96S
CANCUN MEXICO  MOSUNNY   84  73  70 NE6       29.98R HX  91
COZUMEL MEXICO MOSUNNY   79  73  83 N7        29.97S

ADJACENT COASTAL WATERS...

STATION/POSITION TIME  SKY/WX   TEMP    WIND        PRES    WAVE
                                AIR SEA DIR/SP/G            HT/PER
                 (UTC)          (F)     (DEG/KT/KT) (MB)    (FT/S)
PULASKI SHOAL LI 1400            79      60/  5/  6 1015.4R
SAND KEY         1437            78      70/  6/  7 1015.5R
SOMBRERO KEY     1500            78      30/  4/  5 1016.1S
LONG KEY         1354            78 79  350/  2/  3 1016.2R
MOLASSES REEF    1500            78 81  340/  5/  6 1015.2F
FOWEY ROCKS      1500            77 80  310/  6/  7 1015.4S
Buoy 42080       NOT AVBL

$$




U.S. Dept. of Commerce
NOAA National Weather Service
1325 East West Highway
Silver Spring, MD 20910
E-mail: w-nws.webmaster@noaa.gov
Page last modified: May 16, 2007
NATIONAL WEATHER SERVICE: for Safety, for Work, for Fun - FOR LIFE